User: anonymous   Login
Location: Unspecified
(48.1170°N, 0.0000°E)
Time: 07:42:26
(UTC+00:00)
Language:

UWE-3 - Orbit

View from above orbital plane
View from above orbital plane
View from above satellite
View from above satellite

Ground track
Ground track

The orbit data is extracted from the following two-line orbital elements,

1 39446U 13066AG  19236.96349520 +.00000125 +00000-0 +23333-4 0  9997
2 39446 097.5830 238.5339 0069428 199.3514 160.5060 14.78410512308613
Epoch (UTC): 24 August 2019 23:07:25
Eccentricity: 0.0069428
inclination: 97.5830°
perigee height: 585 km
apogee height: 683 km
right ascension of ascending node: 238.5339°
argument of perigee: 199.3514°
revolutions per day: 14.78410512
mean anomaly at epoch: 160.5060°
orbit number at epoch: 30861

The dashed part of the orbit path shows where the satellite is in the earth's shadow,  

DLR